Temperature
18 21 19 18 17 17 18 18 18 17 13 12 13 13 13 8 7 8 7 7 6 5 3 1 1 1 1 0 0 -0 -1 -1 -1 -2 -2 -2 -3 -4 -4 -5 -6 -6 -7 -8
21 19 16 15 15 16 17 18 18 16 12 12 13 13 13 10 8 8 8 7 6 5 3 1 1 1 1 0 -0 -1 -1 -2 -2 -2 -3 -3 -4 -5 -6 -6 -7 -7 -8 -9
20 17 15 15 16 17 17 17 17 16 13 11 12 16 12 9 8 7 7 7 7 5 3 2 1 1 0 0 -0 -1 -1 -2 -2 -3 -3 -4 -5 -6 -7 -7 -7 -8 -9 -10
17 15 15 16 16 16 18 15 14 14 15 16 14 18 16 11 9 8 7 7 6 5 3 2 1 0 0 0 -0 -1 -2 -2 -3 -3 -4 -5 -6 -6 -7 -8 -8 -9 -9 -10
17 15 16 16 15 14 15 13 13 13 14 15 14 16 19 11 13 12 9 8 6 5 3 2 1 1 1 0 -1 -1 -2 -3 -3 -4 -4 -5 -6 -7 -7 -8 -9 -10 -10 -10
15 14 14 15 14 13 13 13 13 13 15 17 15 16 18 16 15 14 11 8 6 4 2 1 1 1 1 -0 -1 -2 -2 -3 -3 -4 -5 -5 -6 -7 -8 -9 -10 -10 -10 -11
16 15 14 13 15 15 15 17 18 19 18 18 13 14 17 16 13 11 10 8 5 3 2 1 1 1 0 -1 -1 -2 -2 -3 -3 -4 -5 -6 -7 -7 -8 -9 -10 -10 -11 -11
18 18 15 14 15 15 15 16 17 17 18 18 14 15 18 13 9 7 6 6 4 2 1 1 1 1 -0 -1 -1 -2 -3 -3 -4 -4 -5 -6 -7 -8 -8 -9 -10 -11 -11 -11
18 17 13 12 12 14 15 15 14 16 15 15 17 17 17 10 9 8 6 4 3 2 1 1 1 1 -0 -1 -1 -2 -3 -3 -4 -5 -5 -6 -7 -8 -8 -9 -10 -10 -11 -11
15 16 14 12 12 12 13 14 14 15 16 16 18 17 18 17 15 12 8 6 3 2 1 0 1 1 -0 -1 -2 -2 -3 -3 -4 -5 -6 -6 -7 -8 -9 -9 -10 -10 -11 -11
13 16 15 14 14 15 13 13 14 14 15 16 16 18 17 17 15 13 11 7 4 2 1 1 1 0 -0 -1 -2 -2 -3 -4 -4 -5 -6 -6 -7 -8 -9 -9 -10 -10 -11 -11
12 15 17 16 12 12 14 14 14 16 15 14 15 17 16 14 12 10 10 7 4 2 1 1 1 0 -1 -1 -2 -3 -3 -4 -5 -5 -6 -6 -7 -8 -9 -9 -10 -10 -11 -11
11 14 18 17 14 12 12 12 12 13 14 14 14 17 15 11 10 8 7 6 3 2 1 1 1 0 -1 -1 -2 -3 -3 -4 -5 -5 -6 -7 -7 -8 -9 -9 -10 -10 -11 -11
10 13 16 19 17 16 14 12 11 12 14 14 14 16 18 16 14 11 8 5 3 2 1 1 1 -0 -1 -1 -2 -3 -3 -4 -5 -5 -6 -7 -7 -8 -8 -9 -9 -10 -11 -11
10 13 13 14 12 11 12 12 11 12 14 14 16 15 16 16 15 12 8 5 2 1 1 1 1 -0 -1 -1 -2 -3 -3 -4 -5 -5 -6 -7 -7 -8 -8 -9 -9 -10 -10 -11
9 12 11 13 10 10 10 11 11 11 11 12 12 13 15 14 9 8 6 4 2 2 1 2 1 0 -1 -1 -2 -3 -3 -4 -5 -5 -6 -6 -7 -7 -8 -8 -9 -9 -10 -11
10 11 13 15 12 11 14 14 10 10 10 11 13 15 15 11 10 8 7 5 4 3 3 2 1 0 -1 -1 -2 -3 -3 -4 -5 -5 -6 -6 -7 -7 -8 -8 -9 -9 -10 -10
10 11 12 13 14 14 18 12 11 11 12 10 11 13 13 11 9 7 7 6 5 4 4 3 1 0 -1 -1 -2 -3 -3 -4 -4 -5 -6 -6 -7 -7 -7 -8 -8 -9 -9 -10
8 11 11 11 14 16 16 11 10 11 13 13 11 12 12 7 5 8 10 8 7 5 4 3 1 0 -1 -1 -2 -3 -3 -4 -4 -5 -6 -6 -6 -7 -7 -8 -8 -9 -9 -9
6 8 10 9 12 14 18 11 8 11 13 14 11 11 10 5 10 12 10 9 6 5 3 2 1 0 -1 -1 -2 -3 -3 -4 -4 -5 -5 -6 -6 -6 -7 -7 -8 -8 -9 -9
7 8 9 10 11 14 14 7 8 14 18 16 14 13 10 7 10 10 9 8 6 5 3 2 1 0 -1 -1 -2 -2 -3 -4 -4 -5 -5 -5 -6 -6 -6 -7 -7 -8 -8 -8
10 9 9 10 10 13 10 7 11 17 17 16 15 14 12 12 11 9 8 7 6 5 3 2 1 -0 -1 -1 -2 -2 -3 -4 -4 -4 -5 -5 -6 -6 -6 -6 -7 -7 -8 -8
11 12 12 11 15 15 11 13 16 16 15 16 15 14 12 11 10 10 8 7 6 5 3 2 1 -0 -1 -1 -2 -2 -3 -3 -4 -4 -5 -5 -5 -6 -6 -6 -6 -7 -7 -8
10 8 10 9 11 12 11 14 15 16 16 16 15 14 13 11 11 10 8 7 6 4 3 2 0 -0 -1 -1 -2 -2 -3 -3 -4 -4 -4 -5 -5 -5 -5 -6 -6 -6 -7 -8
13 8 9 10 12 12 14 17 19 18 17 17 16 15 14 13 11 10 9 7 6 5 3 2 1 0 -0 -1 -2 -2 -3 -3 -4 -4 -4 -4 -5 -5 -5 -5 -6 -6 -7 -8
10 9 11 15 17 15 17 18 17 17 17 17 16 15 14 13 12 10 9 8 6 5 4 2 1 0 -1 -1 -2 -2 -3 -3 -3 -4 -4 -4 -4 -5 -5 -5 -5 -6 -6 -7
Wind_Speed
4 3 5 4 3 2 1 4 6 2 3 6 12 14 10 14 18 18 17 17 16 15 12 11 9 6 2 1 4 6 8 9 10 8 9 9 10 9 10 11 14 15 17 18
2 4 3 1 1 2 3 5 5 1 2 5 11 15 10 12 19 19 18 18 17 15 13 12 10 7 3 1 4 6 7 9 9 9 9 9 10 9 10 11 13 15 17 17
3 3 1 2 1 2 3 5 5 5 2 4 8 6 4 5 11 15 17 17 16 16 15 13 11 8 4 1 3 5 7 8 9 10 9 9 8 8 8 10 11 15 17 17
4 2 2 1 0 3 3 1 4 5 6 4 4 6 3 3 7 12 16 17 17 15 14 13 11 8 4 0 2 4 6 7 8 9 9 11 10 10 11 10 11 16 16 16
3 1 0 0 1 2 2 1 3 3 3 5 2 5 2 2 4 8 13 16 16 14 14 13 11 8 4 1 1 3 5 6 8 9 10 10 10 9 10 11 13 14 15 15
3 1 2 1 1 1 1 2 2 2 3 3 1 4 4 2 2 1 3 9 13 13 13 12 10 8 5 2 1 3 5 6 7 9 9 10 11 12 13 13 13 12 11 14
2 2 1 0 1 1 2 5 4 3 3 3 1 5 6 1 3 5 5 5 9 13 14 13 11 8 5 3 2 3 5 6 7 8 9 10 11 12 13 13 13 13 12 12
1 2 2 2 2 2 2 4 4 5 6 7 2 5 4 1 3 4 5 5 9 13 14 13 11 8 5 3 2 3 4 6 7 8 9 9 10 9 9 12 12 12 11 13
1 1 2 2 1 2 1 2 2 3 4 6 6 6 6 3 7 8 7 7 11 14 14 12 10 8 6 4 2 3 4 6 7 8 9 9 10 10 11 12 12 11 13 15
1 2 2 2 3 3 3 3 2 2 5 6 9 7 5 5 6 7 10 11 12 14 14 12 10 8 6 4 3 3 3 5 7 7 8 8 10 10 11 11 12 13 15 17
1 3 3 3 5 3 4 3 2 2 3 4 7 8 2 7 5 6 8 11 13 16 15 13 10 8 6 5 3 3 3 5 6 7 8 9 9 10 11 10 12 13 15 16
2 2 3 2 2 2 3 4 5 4 3 4 6 8 2 5 5 7 8 8 12 15 14 13 11 9 7 6 4 3 3 4 6 7 8 9 9 10 10 11 12 14 14 16
4 3 3 3 3 3 4 5 5 3 3 5 5 9 2 3 7 9 9 8 11 14 14 13 11 9 8 6 5 4 4 4 5 6 8 9 9 10 11 11 12 13 14 15
3 4 5 4 2 3 6 7 8 8 6 6 11 17 17 13 11 10 9 10 12 15 15 14 12 10 9 7 5 4 4 4 5 6 8 8 9 10 11 11 12 12 13 14
3 5 6 8 6 5 8 11 13 15 12 10 12 13 21 19 15 10 7 10 13 15 16 15 13 11 9 8 6 5 4 4 5 6 8 8 9 10 10 11 11 12 13 13
4 4 3 5 3 5 8 14 15 17 13 16 19 21 20 13 6 6 8 11 15 17 17 16 13 12 11 9 7 6 5 4 5 7 8 8 9 9 10 10 11 12 12 13
6 4 3 4 2 6 10 10 15 9 12 12 12 11 7 7 9 9 10 14 16 17 17 16 15 13 11 9 8 6 5 4 5 7 7 8 9 9 10 10 11 12 12 13
6 4 2 4 4 7 3 3 9 9 11 15 15 17 15 12 10 9 11 14 16 16 17 16 14 12 11 9 7 6 5 5 6 7 7 8 8 9 10 11 11 12 11 12
2 4 3 3 4 9 5 5 7 7 9 13 18 20 14 2 6 9 12 15 15 16 16 15 14 12 11 9 8 6 6 6 6 7 7 8 8 9 10 11 11 11 11 12
2 2 4 4 4 7 3 5 5 3 7 8 13 14 8 3 6 6 7 12 13 13 13 13 13 12 11 10 8 7 7 7 7 7 7 8 9 10 10 11 12 11 11 11
5 5 7 7 7 10 2 7 8 4 5 4 10 11 10 10 9 1 6 11 13 14 13 14 13 12 10 10 9 8 8 8 7 6 7 8 9 9 10 11 10 11 11 11
10 9 9 7 7 10 8 11 11 9 2 4 7 9 11 14 8 5 8 11 14 15 14 15 13 11 10 10 10 9 9 7 6 6 7 8 9 8 8 10 10 10 10 11
11 10 7 12 11 2 13 12 9 4 6 7 7 10 12 12 11 10 10 13 15 15 15 15 13 12 10 11 11 10 8 6 6 6 7 7 8 8 8 9 10 9 8 8
8 5 6 9 14 11 14 17 17 15 17 16 12 11 11 13 12 13 12 14 15 16 16 15 14 13 12 12 12 11 7 6 6 7 6 6 7 7 7 7 7 7 7 8
8 10 7 11 11 11 14 17 20 19 17 17 16 15 15 15 14 15 14 16 16 16 15 15 15 14 13 13 12 11 9 8 7 7 6 6 6 7 7 6 6 7 7 8
9 12 11 15 11 10 14 8 8 13 16 16 15 14 15 16 16 15 15 15 16 16 16 15 15 15 14 13 12 11 10 9 8 6 5 4 5 5 6 7 7 6 7 10
Wind_Direction
22 80 75 65 32 13 294 277 287 293 158 229 254 263 244 199 206 215 215 215 216 217 205 190 186 182 183 353 354 351 348 349 347 344 342 339 338 335 336 336 335 334 334 333
125 83 79 81 170 206 248 280 292 249 176 253 288 280 265 212 212 218 221 221 221 216 201 194 191 191 201 328 351 348 348 345 347 344 336 330 326 324 325 329 331 333 333 332
66 91 131 169 145 244 262 285 311 311 297 232 298 277 180 201 223 228 232 233 229 219 209 198 194 195 198 297 352 344 341 339 343 342 335 332 327 325 333 334 331 331 329 328
88 97 172 191 86 319 310 315 296 296 299 306 339 312 149 188 227 229 230 229 228 220 211 198 192 190 189 171 348 333 334 336 343 343 341 339 335 333 333 331 325 327 327 325
102 73 70 262 19 306 327 338 277 272 274 282 253 287 289 167 252 236 229 226 223 214 204 193 185 177 167 160 317 325 328 335 343 344 341 336 333 329 327 328 326 328 327 325
94 80 19 28 70 290 234 216 172 193 236 270 138 295 293 185 232 258 231 224 216 204 193 183 171 164 167 177 272 315 325 336 343 342 339 336 332 330 328 330 330 330 327 326
141 139 87 291 245 169 287 310 310 305 294 331 120 269 267 278 244 257 268 243 208 192 184 177 173 175 182 201 261 307 325 336 341 339 337 334 330 328 328 329 328 328 326 327
236 157 96 27 0 353 17 341 354 322 314 315 255 262 282 179 237 253 259 244 199 189 186 181 178 179 186 202 251 302 325 333 337 335 333 329 329 327 323 325 324 324 324 324
274 150 112 59 34 322 122 90 8 281 285 284 278 276 278 195 243 237 232 216 201 191 187 183 178 180 187 202 240 297 319 327 331 330 328 326 329 327 323 323 323 323 323 323
269 244 161 141 152 60 13 139 181 266 310 303 297 286 277 250 243 224 227 221 206 192 188 184 181 183 187 200 228 271 304 319 322 324 326 322 323 324 322 321 324 324 324 325
236 239 174 187 210 199 160 167 188 197 264 285 304 301 225 261 267 253 244 224 204 193 189 185 182 182 187 200 224 260 291 309 317 321 322 321 323 322 321 321 324 325 324 326
188 245 241 193 103 359 236 217 202 250 249 237 271 276 190 239 248 252 259 230 203 193 188 183 181 183 193 207 223 249 280 300 312 315 316 318 320 321 322 323 324 325 325 326
177 221 252 190 182 190 214 206 203 209 245 228 244 276 129 217 246 250 252 230 198 188 184 182 183 191 200 209 221 241 267 292 304 308 311 315 319 322 323 323 324 324 325 326
194 234 246 277 305 186 208 198 192 195 225 237 237 271 293 295 286 274 249 224 197 189 187 187 190 195 201 208 218 235 259 282 296 303 307 312 318 321 320 320 321 323 324 325
209 246 249 266 268 245 247 230 205 213 229 244 258 269 284 300 306 295 256 209 194 191 192 193 195 195 199 205 213 226 248 270 287 296 302 309 313 315 316 318 320 322 323 324
207 240 263 268 230 226 255 240 224 228 236 246 264 276 276 287 285 259 231 204 200 199 197 196 196 195 199 204 208 217 237 260 280 288 295 302 306 310 314 317 320 321 322 324
188 210 249 267 231 285 268 230 197 203 214 214 236 259 280 273 265 262 238 210 209 203 198 196 195 196 197 197 200 210 228 252 270 278 286 295 302 306 311 315 316 320 321 321
178 193 239 287 307 253 257 127 183 211 234 220 242 263 270 275 287 270 240 218 210 202 196 194 192 189 188 184 187 200 223 246 263 274 280 287 296 302 308 313 315 318 319 318
221 198 212 236 269 277 265 186 184 209 269 228 232 253 266 296 296 265 224 213 208 198 192 188 184 179 174 176 180 193 221 240 256 266 276 286 292 297 304 309 313 316 316 314
115 195 216 202 229 251 247 146 154 162 273 226 213 239 233 192 275 294 176 193 195 186 179 172 168 168 173 176 177 197 222 236 250 264 278 286 290 294 301 306 311 313 313 310
172 189 207 215 236 263 218 139 149 202 273 193 205 223 197 208 232 241 162 180 181 176 171 167 167 174 178 172 178 204 223 236 249 266 280 286 290 295 299 303 308 311 311 311
183 179 196 185 209 253 163 153 192 230 260 205 216 219 214 225 225 193 184 179 175 173 172 171 174 179 174 173 186 209 225 233 241 261 276 285 293 297 296 303 308 313 315 315
208 203 196 198 217 281 174 205 226 257 250 243 231 227 222 228 223 207 195 187 184 180 177 178 180 177 178 185 197 213 220 218 234 257 274 287 295 296 299 306 311 316 319 318
218 204 212 241 259 252 231 241 252 247 250 258 248 237 217 222 221 204 195 189 187 185 182 180 181 185 190 194 203 214 211 212 233 256 274 288 296 300 306 308 309 314 316 318
206 176 210 245 264 283 260 237 244 251 251 254 250 239 228 223 219 204 197 192 189 186 184 184 188 193 196 194 201 205 205 210 228 249 266 284 293 300 307 310 312 313 309 312
196 191 204 250 240 236 271 256 234 238 246 243 240 238 227 219 218 204 200 192 187 185 183 186 193 197 196 194 198 198 197 203 218 238 255 275 291 301 308 314 316 311 306 317
Height
1581 1580 1583 1587 1588 1588 1586 1585 1584 1587 1595 1596 1590 1587 1589 1595 1598 1599 1600 1602 1603 1605 1606 1605 1605 1604 1603 1601 1599 1596 1592 1588 1585 1581 1576 1571 1566 1561 1555 1550 1544 1537 1531 1525
1579 1585 1591 1591 1591 1590 1588 1585 1582 1588 1596 1594 1586 1582 1583 1588 1591 1593 1595 1597 1599 1601 1602 1601 1601 1601 1601 1599 1596 1593 1590 1586 1582 1577 1573 1568 1562 1557 1552 1546 1541 1535 1529 1523
1580 1590 1592 1591 1590 1588 1587 1585 1584 1587 1591 1594 1591 1571 1581 1586 1589 1591 1592 1593 1594 1596 1597 1598 1598 1598 1598 1596 1593 1590 1587 1583 1579 1575 1570 1565 1560 1555 1550 1544 1537 1532 1526 1520
1586 1591 1591 1590 1589 1589 1584 1589 1590 1590 1587 1578 1588 1570 1567 1579 1584 1586 1586 1587 1589 1591 1593 1594 1595 1595 1594 1593 1590 1587 1584 1580 1577 1572 1567 1562 1557 1552 1546 1540 1534 1529 1523 1518
1587 1591 1590 1589 1591 1591 1589 1592 1591 1590 1587 1582 1584 1576 1561 1579 1575 1576 1579 1581 1584 1586 1588 1590 1591 1591 1591 1589 1587 1585 1581 1578 1574 1570 1565 1560 1555 1549 1544 1538 1532 1526 1521 1515
1590 1593 1592 1591 1593 1593 1592 1591 1590 1589 1584 1576 1579 1577 1562 1566 1568 1571 1575 1577 1579 1582 1584 1585 1586 1587 1587 1586 1584 1582 1579 1576 1572 1567 1562 1557 1552 1546 1541 1535 1529 1524 1518 1513
1588 1591 1593 1593 1590 1590 1588 1582 1575 1572 1570 1568 1585 1580 1564 1565 1570 1572 1573 1575 1576 1577 1579 1581 1582 1584 1584 1583 1581 1579 1576 1573 1569 1564 1560 1554 1549 1544 1538 1532 1527 1521 1515 1510
1583 1585 1591 1592 1591 1589 1589 1586 1585 1586 1578 1571 1579 1574 1558 1567 1570 1570 1571 1572 1572 1574 1575 1577 1579 1580 1580 1579 1578 1576 1573 1570 1566 1562 1557 1552 1546 1541 1536 1530 1525 1519 1513 1508
1582 1585 1593 1594 1594 1592 1588 1588 1592 1588 1587 1586 1567 1563 1557 1567 1567 1568 1568 1568 1568 1570 1572 1574 1575 1576 1577 1576 1574 1572 1570 1567 1563 1559 1554 1549 1544 1539 1533 1528 1523 1517 1511 1505
1587 1586 1590 1594 1594 1595 1593 1591 1591 1589 1586 1580 1565 1561 1557 1552 1555 1560 1563 1564 1564 1566 1568 1570 1571 1572 1573 1572 1571 1569 1567 1564 1560 1556 1551 1546 1541 1536 1531 1525 1520 1515 1509 1503
1590 1586 1587 1590 1589 1586 1593 1593 1591 1589 1588 1583 1575 1557 1550 1550 1553 1556 1557 1558 1559 1560 1563 1565 1567 1568 1569 1568 1567 1566 1563 1560 1557 1553 1548 1544 1539 1533 1528 1523 1518 1512 1506 1501
1591 1586 1580 1583 1590 1592 1588 1587 1587 1585 1583 1587 1581 1562 1548 1551 1553 1554 1554 1554 1554 1556 1558 1561 1563 1564 1564 1564 1563 1562 1560 1557 1554 1550 1545 1541 1536 1531 1526 1521 1515 1510 1504 1498
1592 1587 1577 1577 1587 1591 1589 1588 1589 1588 1587 1584 1581 1555 1548 1550 1551 1550 1550 1549 1550 1551 1554 1556 1558 1559 1560 1560 1560 1558 1556 1554 1550 1547 1542 1538 1534 1529 1524 1518 1513 1507 1502 1496
1591 1585 1578 1572 1571 1574 1581 1586 1589 1586 1581 1575 1570 1549 1539 1541 1543 1544 1545 1545 1545 1546 1548 1551 1553 1555 1556 1556 1556 1554 1553 1550 1547 1544 1540 1536 1531 1526 1521 1516 1511 1505 1499 1494
1590 1583 1580 1577 1579 1582 1579 1578 1582 1580 1572 1568 1553 1549 1538 1536 1538 1539 1539 1539 1540 1541 1543 1546 1548 1550 1551 1552 1551 1551 1549 1547 1544 1541 1537 1533 1529 1524 1519 1513 1508 1503 1497 1492
1588 1584 1583 1576 1579 1580 1577 1571 1573 1574 1572 1565 1558 1549 1535 1534 1535 1534 1534 1534 1534 1535 1537 1540 1543 1545 1546 1547 1547 1546 1545 1543 1540 1537 1534 1530 1526 1521 1516 1511 1506 1500 1495 1490
1585 1583 1578 1568 1573 1574 1560 1549 1561 1562 1558 1555 1549 1536 1530 1532 1531 1530 1529 1528 1527 1529 1532 1535 1538 1540 1542 1542 1543 1542 1541 1539 1537 1534 1531 1527 1523 1519 1514 1509 1503 1498 1493 1487
1581 1580 1578 1574 1568 1569 1538 1546 1548 1549 1545 1544 1538 1531 1528 1528 1526 1523 1522 1521 1522 1524 1526 1530 1533 1535 1537 1538 1538 1538 1537 1535 1533 1531 1528 1524 1520 1516 1511 1506 1501 1496 1490 1485
1581 1579 1578 1577 1565 1551 1539 1544 1546 1546 1536 1529 1531 1525 1524 1523 1522 1516 1514 1515 1516 1519 1522 1525 1528 1530 1532 1533 1533 1533 1533 1531 1530 1527 1525 1521 1517 1513 1508 1503 1498 1493 1488 1483
1582 1581 1578 1579 1570 1557 1531 1540 1541 1544 1534 1521 1521 1520 1520 1522 1519 1511 1511 1511 1512 1515 1517 1520 1523 1525 1527 1528 1529 1529 1528 1527 1526 1524 1521 1518 1514 1510 1506 1501 1496 1491 1486 1481
1579 1578 1577 1573 1567 1543 1531 1537 1542 1539 1522 1515 1514 1514 1514 1514 1511 1508 1507 1507 1508 1510 1513 1515 1518 1520 1522 1523 1524 1524 1524 1523 1522 1520 1518 1515 1511 1507 1503 1498 1494 1489 1484 1479
1558 1563 1566 1564 1564 1543 1530 1534 1531 1518 1511 1510 1509 1508 1507 1505 1504 1502 1502 1503 1504 1505 1507 1510 1513 1515 1517 1518 1519 1520 1520 1519 1518 1516 1514 1512 1509 1505 1501 1496 1492 1487 1482 1477
1546 1541 1540 1541 1529 1519 1518 1514 1511 1509 1507 1505 1503 1502 1501 1499 1497 1496 1496 1497 1498 1500 1502 1505 1507 1510 1512 1513 1515 1515 1516 1515 1514 1513 1511 1509 1506 1502 1498 1494 1490 1485 1480 1474
1535 1536 1535 1533 1518 1513 1511 1508 1506 1504 1501 1498 1497 1495 1493 1491 1490 1489 1490 1491 1492 1494 1496 1499 1501 1504 1506 1508 1510 1511 1511 1511 1510 1509 1508 1505 1503 1500 1497 1492 1488 1482 1477 1472
1521 1528 1527 1522 1511 1508 1501 1499 1498 1496 1494 1491 1489 1487 1485 1483 1482 1482 1482 1483 1485 1487 1490 1492 1495 1498 1501 1503 1504 1506 1506 1506 1506 1505 1504 1502 1500 1498 1494 1491 1486 1481 1476 1471
1513 1514 1515 1504 1499 1500 1494 1492 1491 1488 1485 1483 1481 1478 1476 1475 1473 1474 1474 1476 1478 1480 1483 1485 1489 1492 1495 1497 1499 1500 1501 1502 1502 1501 1501 1499 1497 1495 1492 1489 1485 1481 1476 1471